Content
SEND FEEDBACK

Daily
Averages
Monthly
Summary
United States of America

BANGOR, MAINE


Home > North America > United States > Maine
Elevation: 58 meters     Latitude: 44 48N     Longitude: 068 49W

WEATHER
 
SELECT A DAY
Number of Records: 160,833;   Date Range: 1/1/95 - 7/22/14
 
SHARE

PRINT THIS DATA

[ ← Previous Day ]
WEATHER ALMANAC - 31 JANUARY, 2013
[ Next Day → ]
[ °F ]   °C
Weather ElementAverageHighLow
Temperature8.1 °C12.2 °C (9:53 am)-1.7 °C (11:53 pm)
Dewpoint4.9 °C11.7 °C (9:53 am)-13.3 °C (11:53 pm)
Humidity82.9 %100 % (1:53 am)41 % (11:53 pm)
Barometer984.4 hPa994.2 hPa (1:53 am)974.3 hPa (11:53 am)
Wind Speed31.1 km/h53.8 km/h (6:03 am)
Wind Gust87.1 km/h (8:53 am)
Weather ElementAverage
Visibility9.5 km
Wind DirectionSSW (215 °)

Weather ElementTotal
Precipitation17.78 mm
Heating Degree Days13.1 (Base 18.3)
Averaged from 36 records on 31 January, 2013
WEATHER CONDITIONS BREAKOUT
WIND DIRECTION BREAKOUT
WEATHER BY HOUR - 31 JANUARY, 2013
[ °F ]   °C
Local TimeTemperatureDewpointHumidityBarometerVisibilityWind DirectionWind SpeedGust SpeedPrecipitationEventsConditions
1:53 AM11.1 °C11.1 °C100 %994.2 hPa4.8 kmSouth (180°)22.2 km/h37 km/h0.25 mmRainLight Rain
2:15 AM11 °C11 °C100 %993.9 hPa6.4 kmSouth (180°)22.2 km/h0 mmRainLight Rain
2:53 AM11.1 °C11.1 °C100 %992.2 hPa11.3 kmSSE (160°)18.5 km/h33.3 km/h0 mmLight Drizzle
3:23 AM10 °C10 °C100 %991.5 hPa4.8 kmSouth (170°)25.9 km/h37 km/h0 mmLight Drizzle
3:34 AM10 °C10 °C100 %990.9 hPa3.2 kmSouth (180°)31.5 km/h38.9 km/h0 mmLight Drizzle
3:53 AM10 °C10 °C100 %990.2 hPa4 kmSouth (170°)29.6 km/h46.3 km/h0 mmRainLight Rain
4:53 AM10.6 °C10.6 °C100 %987.5 hPa4.8 kmSouth (180°)42.6 km/h64.9 km/h1.52 mmLight Drizzle
5:53 AM11.1 °C10.6 °C97 %985.8 hPa4.8 kmSouth (190°)46.3 km/h76 km/h0.25 mmLight Drizzle
6:03 AM11 °C11 °C100 %985.8 hPa4.8 kmSouth (180°)53.8 km/h77.7 km/h0 mmLight Drizzle
6:53 AM11.7 °C11.1 °C96 %983.7 hPa6.4 kmSouth (180°)51.8 km/h83.4 km/h1.27 mmOvercast
7:00 AM12 °C11 °C94 %983.4 hPa4.8 kmSouth (190°)50.1 km/h77.7 km/hOvercast
7:53 AM11.7 °C11.1 °C96 %981 hPa4.8 kmSouth (180°)42.6 km/h61.2 km/h2.29 mmRainLight Rain
8:10 AM12 °C11 °C94 %980.4 hPa2.9 kmSouth (180°)40.7 km/h74 km/h0.51 mmRainLight Rain
8:12 AM12 °C11 °C94 %980.4 hPa4 kmSouth (180°)46.3 km/h64.9 km/h0.76 mmRainLight Rain
8:53 AM11.7 °C11.1 °C96 %979.3 hPa2.9 kmSouth (190°)46.3 km/h87.1 km/h2.03 mmOvercast
9:27 AM12 °C11 °C94 %979 hPa8 kmSouth (180°)33.3 km/h51.8 km/h0.51 mmOvercast
9:53 AM12.2 °C11.7 °C97 %977.7 hPa9.7 kmSouth (170°)35.2 km/h48.1 km/h0.51 mmRainLight Rain
10:11 AM12 °C11 °C94 %976.6 hPa12.9 kmSouth (170°)38.9 km/h61.2 km/h0.25 mmRainLight Rain
10:53 AM11.1 °C10.6 °C97 %976 hPa2.9 kmSouth (180°)38.9 km/h68.6 km/h0.51 mmOvercast
11:53 AM10.6 °C10 °C96 %974.3 hPa8 kmSouth (180°)27.8 km/h48.1 km/h0.76 mmOvercast
12:11 PM11 °C11 °C100 %976 hPa2.4 kmSW (230°)35.2 km/h51.8 km/h0.25 mmOvercast
12:18 PM8 °C7 °C93 %976.3 hPa4 kmWest (280°)24.1 km/h66.6 km/h1.78 mmRainRain
12:32 PM7 °C6 °C93 %977 hPa11.3 kmWest (260°)18.5 km/h33.3 km/h2.03 mmRainLight Rain
12:53 PM6.7 °C6.1 °C96 %977.3 hPa16.1 kmWest (280°)16.7 km/h2.29 mmRainLight Rain
1:42 PM7 °C3 °C76 %980 hPa16.1 kmWest (260°)25.9 km/h42.6 km/h0 mmScattered Clouds
1:53 PM7.2 °C2.2 °C71 %980 hPa16.1 kmWest (280°)24.1 km/h44.4 km/h0 mmScattered Clouds
2:53 PM5 °C0 °C70 %982.1 hPa16.1 kmWSW (250°)24.1 km/h46.3 km/h0 mmMostly Cloudy
3:53 PM5.6 °C-3.3 °C53 %983.7 hPa16.1 kmWSW (240°)20.4 km/h40.7 km/hScattered Clouds
4:53 PM3.9 °C-4.4 °C55 %985.4 hPa16.1 kmWest (270°)22.2 km/h37 km/hMostly Cloudy
5:53 PM3.3 °C-6.1 °C51 %987.1 hPa16.1 kmWest (270°)25.9 km/h48.1 km/hMostly Cloudy
6:53 PM2.2 °C-6.1 °C55 %988.8 hPa16.1 kmWSW (250°)16.7 km/h35.2 km/hMostly Cloudy
7:53 PM1.7 °C-8.9 °C46 %989.5 hPa16.1 kmWSW (240°)25.9 km/h42.6 km/hMostly Cloudy
8:53 PM0.6 °C-8.9 °C50 %990.5 hPa16.1 kmWest (260°)14.8 km/h38.9 km/hMostly Cloudy
9:53 PM0 °C-10 °C48 %991.5 hPa16.1 kmWSW (250°)27.8 km/h48.1 km/hMostly Cloudy
10:53 PM-0.6 °C-11.7 °C43 %992.9 hPa16.1 kmWest (280°)24.1 km/h51.8 km/hOvercast
11:53 PM-1.7 °C-13.3 °C41 %994.2 hPa16.1 kmWest (270°)24.1 km/h44.4 km/hScattered Clouds
Hourly data recorded from KBGR, located 0 kilometers away from Bangor, Maine







STORIES FROM OUR PARTNERS